Regional Weather Roundup
Issued by NWS

Home | Current Version | Previous Version | Graphics & Text | Print | Product List | Glossary On
Versions: 1 2 3 4 5 6 7 8 9 10 11 12 13 14 15 16 17 18 19 20 21 22 23 24 25 26 27 28 29 30 31 32 33 34 35 36 37 38 39 40 41 42 43 44 45 46 47 48 49 50
420
ASUS43 KLSX 222007
RWRMO
WEATHER SUMMARY FOR MISSOURI
NATIONAL WEATHER SERVICE SPRINGFIELD MO
300 PM CDT WED MAR 22 2017

NOTE: "FAIR" INDICATES FEW OR NO CLOUDS BELOW 12,000 FEET WITH NO
       SIGNIFICANT WEATHER AND/OR OBSTRUCTIONS TO VISIBILITY.
       CURRENT SKY AND/OR WEATHER CONDITIONS ARE NOT AVAILABLE FOR
       CHILLICOTHE AND FARMINGTON.

MOZ001>031-035>038-043-044-053-054-222100-
...NORTHERN AND WESTERN MISSOURI...

CITY           SKY/WX    TMP DP  RH WIND       PRES   REMARKS
KANSAS CTY INT CLOUDY    55  25  31 E15       30.29F
KANSAS C DTWN  CLOUDY    56  27  32 E13G22    30.28F
LEE`S SUMMIT   CLOUDY    55  25  31 SE10G21   30.29F
ST JOSEPH      MOSUNNY   57  27  31 E12G22    30.30F
CHILLICOTHE      N/A     49  28  44 E12G18    30.37F
KIRKSVILLE     CLOUDY    46  24  42 E14       30.39F

$$
MOZ066>068-077>081-088>096-101>105-222100-
...SOUTHWEST MISSOURI...

CITY           SKY/WX    TMP DP  RH WIND       PRES   REMARKS
SPRINGFIELD    CLOUDY    60  31  33 SE13      30.24F
JOPLIN         CLOUDY    55  33  43 SE13      30.24F
BRANSON        CLOUDY    50  34  53 E8        30.28F

$$
MOZ032>034-039>042-045>050-055>058-069>072-222100-
...CENTRAL MISSOURI...

CITY           SKY/WX    TMP DP  RH WIND       PRES   REMARKS
COLUMBIA       SUNNY     53  27  36 E14       30.35F
JEFFERSON CITY SUNNY     53  26  35 SE12G20   30.35F
ROLLA          SUNNY     53  27  36 NE15      30.32F
SEDALIA        SUNNY     55  27  34 E16       30.33F
WHITEMAN AFB   MOSUNNY   56  28  33 E14       30.30F
WARRENSBURG    SUNNY     54  27  35 E16       30.30F
OSAGE BEACH    SUNNY    N/A N/A N/A E12       30.32F

$$
MOZ051-052-059>065-222100-
...EAST CENTRAL MISSOURI...

CITY           SKY/WX    TMP DP  RH WIND       PRES   REMARKS
ST LOUIS INTL  PTSUNNY   51  17  26 NE14      30.41F
SPIRIT OF STL  SUNNY     51  20  29 NE10      30.39F
ST CHARLES     SUNNY     51  19  28 E8G17     30.41F

$$
MOZ072>076-082>087-097>100-106>115-222100-
...SOUTH CENTRAL AND SOUTHEAST MISSOURI...

CITY           SKY/WX    TMP DP  RH WIND       PRES   REMARKS
CAPE GIRARDEAU SUNNY     55  26  32 NE9       30.34F
FARMINGTON     SUNNY     52  27  38 NE13G18   30.36F
POPLAR BLUFF   SUNNY     55  32  41 NE13G20   30.33F
WEST PLAINS    SUNNY     59  33  37 E8        30.29F

$$




USA.gov is the U.S. government's official web portal to all federal, state and local government web resources and services.